This is the latest recevied weather packets stored in our database for station/object SP3ZBZ-13. If no packets are shown the sender has not sent any weather packets the latest 10 day(s).
| Time | Temp. | Humidity | Pressure | Rain* | Wind** | Luminosity | Snow |
|---|---|---|---|---|---|---|---|
| 1777706036 | 18.89° C | 37% | 1019.7 hPa | - | - | 395 W/m² | - |
| 1777705135 | 17.78° C | 43% | 1019.7 hPa | - | - | 344 W/m² | - |
| 1777704234 | 16.11° C | 49% | 1019.8 hPa | - | - | 301 W/m² | - |
| 1777703333 | 15° C | 55% | 1019.9 hPa | - | - | 258 W/m² | - |
| 1777702432 | 13.89° C | 59% | 1019.9 hPa | - | - | 221 W/m² | - |
| 1777701531 | 14.44° C | 57% | 1019.9 hPa | - | - | 185 W/m² | - |
| 1777700630 | 12.78° C | 60% | 1019.9 hPa | - | - | 147 W/m² | - |
| 1777699729 | 11.67° C | 61% | 1019.9 hPa | - | - | 112 W/m² | - |
| 1777698828 | 10.56° C | 63% | 1019.9 hPa | - | - | 81 W/m² | - |
| 1777697927 | 8.33° C | 70% | 1020.1 hPa | - | - | 59 W/m² | - |
| 1777697026 | 7.78° C | 73% | 1020.2 hPa | - | - | 46 W/m² | - |
| 1777696125 | 7.22° C | 74% | 1020.1 hPa | - | - | 38 W/m² | - |
| 1777695224 | 6.11° C | 76% | 1020 hPa | - | - | 30 W/m² | - |
| 1777694323 | 6.11° C | 76% | 1020 hPa | - | - | 21 W/m² | - |
| 1777693422 | 5.56° C | 79% | 1020.1 hPa | - | - | 12 W/m² | - |
| 1777692522 | 5.56° C | 79% | 1020.2 hPa | - | - | 5 W/m² | - |
| 1777691621 | 5.56° C | 79% | 1020.2 hPa | - | - | 2 W/m² | - |
| 1777690720 | 5.56° C | 78% | 1020.3 hPa | - | - | - | - |
| 1777689819 | 6.11° C | 76% | 1020.3 hPa | - | - | - | - |
| 1777688918 | 6.11° C | 75% | 1020.3 hPa | - | - | - | - |
| 1777688017 | 6.11° C | 76% | 1020.4 hPa | - | - | - | - |
| 1777687117 | 6.67° C | 76% | 1020.4 hPa | - | - | - | - |
| 1777686216 | 6.67° C | 74% | 1020.4 hPa | - | - | - | - |
| 1777685315 | 7.22° C | 73% | 1020.4 hPa | - | - | - | - |
| 1777684414 | 7.22° C | 73% | 1020.6 hPa | - | - | - | - |
* Rain since midnight (hover to see other rain measurements)
** Current wind speed in m/s (hover to see current wind gust speed)